星链-2715 (STARLINK-2715 )

导读

STARLINK-2715是美国SpaceX星链星座的卫星,于2021年5月26日发射升空,属于星链第二代组网批次卫星,旨在为全球提供高速低延迟宽带互联网服务。该卫星运行在近地轨道,采用SpaceX设计降低空间碎片碰撞风险,推进了星链星座全球覆盖进程。

Basic Information
目录编号:
48697
目录名称:
STARLINK-2715
国际标识:
2021-044BM
轨道中心:
EARTH
卫星名称:
星链-2715
卫星全名:
星链-2715 (STARLINK-2715 )
卫星状态:
已陨落 最后检测时间 2024-08-11
发射日期:
2021-05-26 UTC
国别 :
美国 (US)
星等 :
--
Orbit Information
数据来源 国际轨道数据
星历时间: 2024-08-11T19:18:30+0800
轨道信息已过期672天
半长轴: 6518.574km
偏心率: 0.0007854
轨道倾角: 52.993°
近地点辐角 258.688°
升交点赤经 97.636°
平近点角 234.155°
近地点: 135.319km
远地点: 145.559km
周期: 87.295分钟
每日圈数: 16.495821
Detailed Information
固有亮度:
5
最大亮度:
2.5
卫星平台:
Starlink v1.5
覆盖范围:
全球
运营商:
太空探索技术公司
运营商所在国:
美国
制造商(研发单位):
太空探索技术公司
制造商所在国:
美国
使用方式:
暂无
Satellite Introduction
星链(Starlink)计划是由太空探索技术公司(SpaceX)提出的一个巨型低轨卫星互联网星座项目,计划在2019年至2024年间在太空搭建由约1.2万颗卫星组成的“星链”网络,其中1584颗将部署在地球上空550千米处的近地轨道,并从2020年开始工作。该卫星已退役。